User: anonymous   Login
Location: Unspecified
(0.0000°N, 0.0000°E)
Time: 04:34:46
(UTC+02:00)
Language:

Cosmos 2263 Rocket - Orbit

View from above orbital plane
View from above orbital plane
View from above satellite
View from above satellite

Ground track
Ground track

The orbit data is extracted from the following two-line orbital elements,

1 22803U 93059B   17146.62082938 -.00000255 +00000-0 -10352-3 0  9996
2 22803 070.9902 294.8803 0015339 054.2811 305.9737 14.16771250224972
Epoch (UTC): 26 May 2017 14:53:59
Eccentricity: 0.0015339
inclination: 70.9902°
perigee height: 825 km
apogee height: 847 km
right ascension of ascending node: 294.8803°
argument of perigee: 54.2811°
revolutions per day: 14.16771250
mean anomaly at epoch: 305.9737°
orbit number at epoch: 22497

The dashed part of the orbit path shows where the satellite is in the earth's shadow,  

DLR